SCP
0 0 0 0 0 0 0 0 0 0 0 0 0 0 0 0 0 0 0 0 0 0 0 0 0 0 0 0 0 0 0 0 0 0 0 0 0 0 0 0 0 0 0 0 0 0 0 0 0
0 0 0 0 0 0 0 0 0 0 0 0 0 0 0 0 0 0 0 0 0 0 0 0 0 0 0 0 0 0 0 0 0 0 0 0 0 0 0 0 0 0 0 0 0 0 0 0 0
0 0 0 0 0 0 0 0 0 0 0 0 0 0 0 0 0 0 0 0 0 0 0 0 0 0 0 0 0 0 0 0 0 0 0 0 0 0 0 0 0 0 0 0 0 0 0 0 0
0 0 0 0 0 0 0 0 0 0 0 0 0 0 0 0 0 0 0 0 0 0 0 0 0 0 0 0 0 0 0 0 0 0 0 0 0 0 0 0 0 0 0 0 0 0 0 0 0
0 0 0 0 0 0 0 0 0 0 0 0 0 0 0 0 0 0 0 0 0 0 0 0 0 0 0 0 0 0 0 0 0 0 0 0 0 0 0 0 0 0 0 0 0 0 0 0 0
0 0 0 0 0 0 0 0 0 0 0 0 0 0 0 0 0 0 0 0 0 0 0 0 0 0 0 0 0 0 0 0 0 0 0 0 0 0 0 0 0 0 0 0 0 0 0 0 0
0 0 0 0 0 0 0 0 0 0 0 0 0 0 0 0 0 0 0 0 0 0 0 0 0 0 0 0 0 0 0 0 0 0 0 0 0 0 0 0 0 0 0 0 0 0 0 0 0
0 0 0 0 0 0 0 0 0 0 0 0 0 0 0 0 0 0 0 0 0 0 0 0 0 0 0 0 0 0 0 0 0 0 0 0 0 0 0 0 0 0 0 0 0 0 0 0 0
0 0 0 0 0 0 0 0 0 0 0 0 0 0 0 0 0 0 0 0 0 0 0 0 0 0 0 0 0 0 0 0 0 0 0 0 0 0 0 0 0 0 0 0 0 0 0 0 0
0 0 0 0 0 0 0 0 0 0 0 0 0 0 0 0 0 0 0 0 0 0 0 0 0 0 0 0 0 0 0 0 0 0 0 0 0 0 0 0 0 0 0 0 0 0 0 0 0
0 0 0 0 0 0 0 0 0 0 0 0 0 0 0 0 0 0 0 0 0 0 0 0 0 0 0 0 0 0 0 0 0 0 0 0 0 0 0 0 0 0 0 0 0 0 0 0 0
0 0 0 0 0 0 0 0 0 0 0 0 0 0 0 0 0 0 0 0 0 0 0 0 0 0 0 0 0 0 0 0 0 0 0 0 0 0 0 0 0 0 0 0 0 0 0 0 0
0 0 0 0 0 0 0 0 0 0 0 0 0 0 0 0 0 0 0 0 0 0 0 0 0 0 0 0 0 0 0 0 0 0 0 0 0 0 0 0 0 0 0 0 0 0 0 0 0
0 0 0 0 0 0 0 0 0 0 0 0 0 0 0 0 0 0 0 0 0 0 0 0 0 0 0 0 0 0 0 0 0 0 0 0 0 0 0 0 0 0 0 0 0 0 0 0 0
0 0 0 0 0 0 0 0 0 0 0 0 0 0 0 0 0 0 0 0 0 0 0 0 0 0 0 0 0 0 0 0 0 0 0 0 0 0 0 0 0 0 0 0 0 0 0 0 0
0 0 0 0 0 0 0 0 0 0 0 0 0 0 0 0 0 0 0 0 0 0 0 0 0 0 0 0 0 0 0 0 0 0 0 0 0 0 0 0 0 0 0 0 0 0 0 0 0
0 0 0 0 0 0 0 0 0 0 0 0 0 0 0 0 0 0 0 0 0 0 0 0 0 0 0 0 0 0 0 0 0 0 0 0 0 0 0 0 0 0 0 0 0 0 0 0 0
0 0 0 0 0 0 0 0 0 0 0 0 0 0 0 0 0 0 0 0 0 0 0 0 0 0 0 0 0 0 0 0 0 0 0 0 0 0 0 0 0 0 0 0 0 0 0 0 0
0 0 0 0 0 0 0 0 0 0 0 0 0 0 0 0 0 0 0 0 0 0 0 0 0 0 0 0 0 0 0 0 0 0 0 0 0 0 0 0 0 0 0 0 0 0 0 0 0
-0 0 0 0 0 0 0 0 0 0 0 0 0 0 0 0 0 0 0 0 0 0 0 0 0 0 0 0 0 0 0 0 0 0 0 0 0 0 0 0 0 0 0 0 0 0 0 0 0
-0 0 0 0 0 0 0 0 0 0 0 0 0 0 0 0 0 0 0 0 0 0 0 0 0 0 0 0 0 0 0 0 0 0 0 0 0 0 0 0 0 0 0 0 0 0 0 0 0
-0 0 0 0 0 0 0 0 0 0 0 0 0 0 0 0 0 0 0 0 0 0 0 0 0 0 0 0 0 0 0 0 0 0 0 0 0 0 0 0 0 0 0 0 0 0 0 0 0
0 0 0 0 0 0 0 0 0 0 0 0 0 0 0 0 0 0 0 0 0 0 0 0 0 0 0 0 0 0 0 0 0 0 0 0 0 0 0 0 0 0 0 0 0 0 0 0 0
0 0 0 0 0 0 0 0 0 0 0 0 0 0 0 0 0 0 0 0 0 0 0 0 0 0 0 0 0 0 0 0 0 0 0 0 0 0 0 0 0 0 0 0 0 0 0 0 0
0 0 0 0 0 0 0 0 0 0 0 0 0 0 0 0 0 0 0 0 0 0 0 0 0 0 0 0 0 0 0 0 0 0 0 0 0 0 0 0 0 0 0 0 0 0 0 0 0
0 0 0 0 0 0 0 0 0 0 0 0 0 0 0 0 0 0 0 0 0 0 0 0 0 0 0 0 0 0 0 0 0 0 0 0 0 0 0 0 0 0 0 0 0 0 0 0 0
0 0 0 0 0 0 0 0 0 0 0 0 0 0 0 0 0 0 0 0 0 0 0 0 0 0 0 0 0 0 0 0 0 0 0 0 0 0 0 0 0 0 0 0 0 0 0 0 0
0 0 0 0 0 0 0 0 0 0 0 0 0 0 0 0 0 0 0 0 0 0 0 0 0 0 0 0 0 0 0 0 0 0 0 0 0 0 0 0 0 0 0 0 0 0 0 0 0
0 0 0 0 0 0 0 0 0 0 0 0 0 0 0 0 0 0 0 0 0 0 0 0 0 0 0 0 0 0 0 0 0 0 0 0 0 0 0 0 0 0 0 0 0 0 0 0 0
0 0 0 0 0 0 0 0 0 0 0 0 0 0 0 0 0 0 0 0 0 0 0 0 0 0 0 0 0 0 0 0 0 0 0 0 0 0 0 0 0 0 0 0 0 0 0 0 0
Wind_Speed
2 1 3 3 3 2 6 5 4 5 5 5 5 4 5 6 6 6 4 3 3 4 5 6 5 5 6 6 6 7 7 7 7 7 7 8 8 8 8 9 9 8 8 9 8 8 8 8 8
2 2 3 3 2 4 5 4 6 6 5 4 4 4 5 7 6 6 4 3 3 4 4 6 6 5 6 6 6 7 7 7 7 7 7 8 8 8 8 8 8 8 8 9 8 8 8 8 9
1 3 3 1 1 3 6 5 7 7 5 2 4 4 5 5 4 4 4 4 4 5 5 7 5 5 6 6 6 6 7 6 7 7 8 8 8 8 8 8 8 8 8 8 8 8 9 9 9
2 3 2 1 6 6 6 6 6 6 5 4 3 5 6 5 3 5 6 5 5 5 5 7 5 5 6 6 6 5 6 6 7 7 8 8 8 8 8 8 8 8 8 8 8 9 9 9 9
2 2 2 4 6 6 5 5 5 4 5 4 4 6 6 5 5 6 6 5 5 5 5 6 6 5 6 6 5 5 7 7 7 7 7 7 7 7 8 8 8 8 8 8 8 9 8 8 8
2 2 3 5 7 6 5 4 4 5 6 5 4 5 6 5 6 6 6 5 5 5 5 6 7 5 5 5 5 6 7 7 7 7 7 7 7 7 8 8 8 8 8 8 8 8 8 8 8
1 1 3 5 6 6 4 3 3 4 5 4 2 4 6 6 6 6 5 5 5 4 4 4 5 6 6 5 5 6 6 6 6 7 7 6 7 7 8 8 8 8 8 8 9 9 9 9 9
2 1 5 5 6 5 4 4 3 2 4 4 1 2 5 7 6 6 6 5 5 4 4 4 4 3 4 6 6 6 6 6 6 6 6 6 6 7 6 7 9 8 8 9 9 9 9 9 9
3 2 4 4 4 5 5 5 4 2 4 4 3 4 5 8 8 7 6 5 5 4 3 3 3 3 3 4 5 5 5 5 4 6 6 3 3 5 5 9 8 8 8 9 9 9 8 7 8
1 2 4 3 2 4 5 4 4 4 4 4 5 6 7 8 8 6 5 5 5 4 3 3 3 3 3 3 3 2 3 3 3 3 3 2 3 3 4 8 7 7 7 8 8 6 5 2 4
2 3 4 4 3 3 4 4 3 3 2 3 4 8 9 8 7 6 5 4 3 3 3 2 2 2 2 2 2 2 2 2 2 3 3 2 2 2 2 3 5 4 4 4 5 3 3 4 4
4 4 3 4 3 3 3 3 2 1 2 3 4 7 9 8 7 5 4 3 3 3 3 2 2 2 2 2 2 2 2 2 2 2 3 2 1 1 2 2 3 2 2 3 3 3 4 4 5
4 4 4 3 3 3 3 2 1 2 2 3 6 8 8 7 6 5 3 3 3 3 3 2 2 2 2 2 1 1 1 1 2 2 1 2 1 2 2 2 2 2 2 3 3 3 4 4 5
4 3 2 2 3 2 3 2 3 3 4 5 6 7 7 6 5 5 4 4 3 3 3 2 3 2 2 2 2 1 1 1 1 1 1 2 2 2 2 2 2 2 2 2 3 4 3 3 3
3 3 3 3 2 2 2 4 3 3 4 5 6 6 6 6 5 4 4 3 3 3 3 2 2 2 3 2 2 1 1 1 1 1 1 2 2 2 2 2 3 3 3 3 3 4 3 3 3
3 4 3 4 2 3 5 3 4 3 4 5 5 5 6 6 5 4 3 3 3 3 3 3 2 2 2 2 2 1 1 1 1 1 0 0 2 2 2 2 2 3 3 3 3 3 3 3 3
4 2 2 3 3 2 4 2 2 3 5 5 5 5 6 6 5 4 4 3 3 3 3 3 3 2 2 2 2 1 1 1 1 1 1 1 2 2 2 2 2 3 3 3 3 3 3 3 3
1 1 1 1 2 3 4 4 1 3 5 5 4 4 5 5 4 4 3 3 3 3 3 3 3 2 3 2 2 2 1 1 1 1 1 0 1 2 2 2 3 3 3 3 3 4 3 3 3
1 2 2 1 0 3 4 4 2 2 4 4 4 4 4 4 3 3 3 4 4 4 4 3 3 3 2 2 2 2 2 1 1 1 1 1 1 2 3 2 3 2 2 3 4 3 4 3 2
3 4 2 1 1 3 4 4 1 2 3 3 3 4 4 3 3 4 4 4 4 4 4 3 3 3 2 2 1 1 1 0 1 1 1 1 1 2 2 4 3 3 3 3 3 3 2 2 1
3 3 2 2 1 4 4 3 3 3 2 2 3 3 2 3 3 4 4 4 4 4 4 3 3 3 3 3 2 2 2 2 2 2 1 1 1 2 3 4 3 3 4 4 4 4 4 2 1
2 1 3 3 4 1 2 2 2 2 2 2 3 3 3 3 3 3 4 4 4 4 4 3 3 3 3 3 3 3 2 2 1 1 2 2 2 2 3 3 4 4 3 3 4 4 3 2 1
1 1 3 4 4 4 3 4 2 1 0 1 2 2 2 3 3 3 3 4 4 4 3 3 3 3 3 3 3 2 2 1 1 1 2 2 2 2 2 3 3 3 3 3 3 3 3 2 2
2 3 4 5 6 5 1 4 0 1 2 2 1 2 2 3 3 3 3 3 4 4 4 3 3 3 3 3 4 3 3 3 3 2 2 2 2 2 2 3 3 3 3 3 3 3 4 3 2
5 5 4 4 4 1 1 4 1 3 2 2 1 1 2 3 3 4 4 4 4 4 4 3 3 3 4 4 4 3 3 4 3 3 3 2 2 2 3 3 3 3 3 4 4 4 3 3 3
3 6 4 4 3 1 2 3 2 2 1 1 1 1 2 2 3 3 3 3 4 4 4 4 4 4 3 3 3 4 4 3 2 3 2 2 2 2 2 3 3 3 3 4 4 3 3 3 3
4 3 4 6 5 5 3 1 1 2 2 2 2 2 2 2 2 3 3 3 3 4 4 3 4 4 4 4 3 3 3 3 2 3 2 2 2 2 3 3 3 3 3 3 3 3 3 3 2
3 1 4 5 5 6 3 4 2 2 1 1 1 1 1 1 1 1 2 3 3 4 3 3 3 4 4 3 3 2 2 2 2 2 2 2 2 2 3 3 3 3 3 3 3 3 3 3 2
4 4 4 5 5 6 5 0 2 1 1 1 1 1 1 1 1 1 1 2 3 3 4 3 3 3 3 3 3 3 3 2 3 2 2 2 2 3 3 3 3 3 3 3 3 4 4 4 4
4 4 6 6 5 6 6 2 3 1 1 2 2 1 1 1 1 1 1 2 3 3 3 3 3 3 3 3 4 3 3 3 3 3 2 2 2 2 3 3 3 3 4 3 3 4 4 4 4
Wind_Direction
232 259 258 246 222 104 79 75 81 87 74 58 54 51 52 38 20 56 87 93 83 100 102 116 105 106 108 103 103 106 106 103 100 100 95 91 89 88 89 86 80 78 79 80 80 81 80 80 79
307 276 248 247 233 117 91 91 89 74 87 95 73 61 69 66 52 82 107 97 105 100 95 89 97 101 104 105 105 107 107 106 104 101 99 95 94 91 91 88 82 77 77 78 76 80 82 82 81
255 261 273 250 85 80 103 105 98 94 93 89 80 55 47 58 70 88 94 117 116 102 96 91 90 93 97 100 103 108 112 112 108 103 97 95 94 94 92 89 83 79 77 78 78 80 81 81 80
252 225 227 134 94 72 96 112 118 122 100 76 95 90 78 51 60 88 112 122 112 101 96 98 92 96 100 97 98 99 106 108 107 104 97 93 90 90 88 84 80 79 79 80 81 81 81 81 80
251 247 161 119 99 95 98 104 125 112 96 89 87 93 92 77 86 104 115 116 108 102 96 103 94 105 109 104 97 101 101 101 99 96 95 93 92 89 87 85 83 82 82 83 83 81 81 81 80
234 231 171 132 114 112 111 113 127 104 102 104 95 100 93 102 106 108 112 109 99 97 97 104 108 102 99 99 96 98 98 97 95 92 90 91 86 83 85 87 85 83 86 88 85 83 83 82 81
289 183 138 133 132 129 118 123 122 116 110 88 88 105 115 122 110 114 113 110 102 102 99 95 112 126 124 103 90 93 96 98 97 96 94 91 88 86 86 89 87 85 86 86 85 82 81 81 80
325 173 143 143 145 122 121 130 99 98 93 94 78 104 119 127 129 128 122 117 117 112 108 107 103 100 112 116 102 93 93 96 95 96 93 101 114 109 104 105 90 85 84 85 86 84 82 82 79
264 199 146 134 144 123 138 141 112 101 117 115 81 57 95 126 140 140 136 134 126 115 107 105 110 106 97 97 109 121 117 111 125 118 115 151 123 109 118 83 88 87 85 85 86 87 88 96 95
265 144 100 91 109 125 143 142 136 160 143 134 125 109 124 142 151 149 147 144 138 134 123 119 116 124 118 105 114 114 118 123 110 100 117 112 92 84 89 101 97 98 99 103 96 104 130 147 98
68 87 101 105 100 134 144 138 158 177 146 128 137 140 148 154 157 158 155 145 137 137 132 136 137 131 133 131 116 109 109 110 99 95 105 108 104 115 113 116 125 121 127 109 118 139 85 75 71
101 84 86 103 112 143 142 135 151 203 69 78 122 142 154 162 164 169 169 156 154 155 147 147 156 147 145 140 133 142 135 127 117 105 88 95 95 98 92 100 99 112 102 96 91 81 79 72 72
109 100 90 95 122 138 146 144 151 149 113 128 138 153 163 168 166 166 169 169 165 162 164 162 170 158 144 131 170 168 133 120 116 108 111 115 111 109 114 114 105 98 100 106 95 91 83 74 67
97 109 111 113 124 143 160 165 188 144 143 151 160 169 174 175 176 174 178 186 175 169 168 169 177 173 174 165 181 144 132 148 132 128 151 135 126 131 127 112 107 105 99 95 106 100 90 80 72
144 148 143 131 141 139 195 199 192 137 166 173 177 177 179 183 188 193 186 193 188 175 165 153 174 181 175 173 167 148 168 157 137 131 159 139 135 145 133 123 120 122 117 112 98 96 87 87 86
188 196 166 134 159 164 231 222 137 156 195 194 189 183 188 189 195 194 193 200 195 191 172 153 177 192 169 169 169 161 165 156 140 129 111 162 160 146 141 135 121 122 120 116 106 101 101 91 80
191 188 147 142 164 197 236 259 131 182 216 212 197 192 194 189 194 193 198 202 194 192 179 168 170 184 164 161 157 168 158 145 142 125 132 186 163 170 152 135 136 129 127 119 112 99 86 83 76
164 196 200 189 150 235 245 267 233 211 224 224 211 201 197 195 191 184 188 191 184 182 178 163 163 186 165 166 167 153 148 171 135 101 115 118 181 165 142 152 147 130 133 126 121 114 102 85 81
266 256 272 347 31 255 256 274 276 212 211 213 208 207 211 201 180 170 176 173 174 178 182 169 181 180 172 165 172 165 161 170 142 129 122 153 183 170 156 168 153 150 144 143 139 124 118 110 101
238 248 261 137 105 268 278 276 238 188 210 218 218 211 209 199 179 168 179 175 178 175 179 176 180 174 163 153 160 152 138 137 109 141 137 145 167 173 175 179 167 163 155 159 149 143 145 136 167
237 264 290 306 274 217 265 225 175 149 172 192 224 234 218 203 195 172 178 180 179 178 176 180 179 168 159 157 152 146 146 184 166 158 143 143 157 163 176 178 174 171 173 169 170 172 176 175 174
244 292 275 264 257 226 269 263 143 140 168 185 201 206 204 189 186 172 175 177 178 173 171 179 174 170 162 170 171 170 181 180 149 142 137 149 147 162 175 171 173 174 180 178 187 188 189 191 205
333 325 257 252 252 250 221 258 132 130 215 222 214 204 199 186 181 172 173 172 162 150 155 162 162 168 167 173 166 196 196 181 168 172 156 153 132 138 160 173 180 180 181 186 187 188 209 211 235
181 210 201 216 236 238 247 266 198 88 330 325 264 197 188 173 169 163 151 149 147 141 147 156 169 161 165 178 183 196 190 193 185 184 175 173 152 149 158 175 188 191 187 188 191 201 211 231 239
222 249 233 214 218 226 61 260 325 32 358 323 349 80 154 159 159 151 146 155 149 152 156 159 169 167 171 184 190 195 199 202 195 195 186 188 170 165 173 183 201 198 192 195 198 207 217 218 231
230 256 277 283 278 277 217 247 56 41 31 349 14 72 105 130 131 131 143 158 160 162 164 170 175 169 169 186 196 199 197 210 201 206 209 205 196 187 187 192 202 200 199 202 200 211 211 219 223
228 232 298 287 281 269 226 210 183 143 137 135 122 106 107 110 118 128 139 153 160 167 173 181 185 179 177 185 197 203 197 206 209 213 220 212 204 192 190 196 201 196 198 209 206 205 205 212 232
305 239 232 254 273 268 251 244 230 171 150 126 155 159 132 125 131 143 153 162 163 171 173 176 192 189 180 183 193 207 213 211 213 214 210 211 209 197 189 199 196 190 192 203 205 206 206 207 217
189 205 239 254 270 281 280 279 53 284 299 282 258 231 218 221 183 181 182 175 171 168 172 174 184 184 182 187 197 204 204 216 212 208 208 216 215 199 193 200 202 194 194 199 197 206 205 212 217
261 257 249 259 253 258 279 288 82 25 328 310 303 296 265 258 220 179 178 182 181 175 174 180 187 182 183 194 196 203 203 208 215 208 210 213 208 203 207 203 200 199 204 206 206 210 214 218 223